Location: Dunedin
(45.8900°S, 170.5000°E)
Time: 13:01:30
(UTC+12:00)

ISS - Pass Details

Date: 17 April 2024
Orbit: 409 x 414 km, 51.6° (Epoch: 20 May)

Event Time Altitude Azimuth Distance (km) Brightness Sun altitude
Rises 20:10:06 0° 286° (WNW) 2,402 1.2 -23.7°
Reaches altitude 10° 20:12:14 10° 281° (W) 1,539 0.0 -24.1°
Enters shadow 20:14:46 41° 253° (WSW) 646 -2.4 -24.5°
